TimeCDT,TemperatureF,Dew PointF,Humidity,Sea Level PressureIn,VisibilityMPH,Wind Direction,Wind SpeedMPH,Gust SpeedMPH,PrecipitationIn,Events,Conditions,WindDirDegrees,DateUTC
12:53 AM,75.9,61.0,60,29.89,10.0,SSW,6.9,-,N/A,,Clear,210,2013-09-10 05:53:00
1:53 AM,71.1,61.0,70,29.90,10.0,SSW,8.1,-,N/A,,Clear,200,2013-09-10 06:53:00
2:53 AM,70.0,61.0,73,29.91,10.0,SSW,8.1,-,N/A,,Clear,210,2013-09-10 07:53:00
3:53 AM,69.1,61.0,75,29.92,10.0,SSW,8.1,-,N/A,,Clear,200,2013-09-10 08:53:00
4:53 AM,68.0,61.0,78,29.93,10.0,South,8.1,-,N/A,,Clear,190,2013-09-10 09:53:00
5:53 AM,66.9,61.0,81,29.94,10.0,South,8.1,-,N/A,,Clear,190,2013-09-10 10:53:00
6:53 AM,66.9,61.0,81,29.96,10.0,South,6.9,-,N/A,,Clear,190,2013-09-10 11:53:00
7:53 AM,71.1,63.0,75,29.98,10.0,South,6.9,-,N/A,,Clear,190,2013-09-10 12:53:00
8:53 AM,77.0,64.9,66,29.97,10.0,South,8.1,-,N/A,,Clear,190,2013-09-10 13:53:00
9:53 AM,84.0,64.0,51,29.97,10.0,SSW,9.2,-,N/A,,Clear,210,2013-09-10 14:53:00
10:53 AM,89.1,63.0,42,29.96,10.0,SW,16.1,21.9,N/A,,Clear,220,2013-09-10 15:53:00
11:53 AM,91.9,61.0,35,29.97,10.0,SW,15.0,25.3,N/A,,Clear,220,2013-09-10 16:53:00
12:53 PM,93.9,62.1,35,29.96,10.0,SW,17.3,23.0,N/A,,Clear,230,2013-09-10 17:53:00
1:53 PM,95.0,61.0,32,29.95,10.0,WSW,17.3,26.5,N/A,,Partly Cloudy,240,2013-09-10 18:53:00
2:53 PM,95.0,59.0,30,29.92,10.0,SW,16.1,23.0,N/A,,Clear,220,2013-09-10 19:53:00
3:53 PM,95.0,60.1,31,29.93,10.0,SW,16.1,24.2,N/A,,Partly Cloudy,220,2013-09-10 20:53:00
4:53 PM,93.9,59.0,31,29.91,10.0,WSW,18.4,24.2,N/A,,Partly Cloudy,240,2013-09-10 21:53:00
5:53 PM,93.0,60.1,33,29.92,10.0,WSW,16.1,-,N/A,,Clear,250,2013-09-10 22:53:00
6:53 PM,89.1,60.1,38,29.93,10.0,SW,6.9,-,N/A,,Clear,220,2013-09-10 23:53:00
7:53 PM,82.0,62.1,51,29.95,10.0,SSW,5.8,-,N/A,,Clear,200,2013-09-11 00:53:00
8:53 PM,77.0,62.1,60,29.97,10.0,South,6.9,-,N/A,,Clear,180,2013-09-11 01:53:00
9:53 PM,75.9,62.1,62,29.99,10.0,SSW,6.9,-,N/A,,Clear,200,2013-09-11 02:53:00
10:53 PM,75.9,62.1,62,29.99,10.0,SSW,6.9,-,N/A,,Clear,200,2013-09-11 03:53:00
11:53 PM,77.0,63.0,62,29.99,10.0,SSW,8.1,-,N/A,,Clear,200,2013-09-11 04:53:00